Orbital Elements at Epoch 2459200.5 (2020-Dec-17.0) TDB
Reference: JPL 16 (heliocentric ecliptic J2000)
Element | Value | Uncertainty (1-sigma) | Units |
e | .165436507011047 | 6.7911e-08 | |
a | 3.010359913531205 | 2.4561e-08 | au |
q | 2.512336484590524 | 2.0295e-07 | au |
i | 2.371554159105995 | 8.3904e-06 | deg |
node | 335.9130652148898 | 0.00017571 | deg |
peri | 322.9915318922456 | 0.00017779 | deg |
M | 210.3122196133991 | 3.0152e-05 | deg |
tp | 2459993.749684443992 (2023-Feb-18.24968444) | 0.00016212 | TDB |
period | 1907.770197823037 5.22 | 2.3347e-05 6.392e-08 | d yr |
n | .188701972811399 | 2.3093e-09 | deg/d |
Q | 3.508383342471885 | 2.8624e-08 | au |
|
| | Orbit Determination Parameters
Additional Information
|